Карточка аэропорта UNEE

Внимание!
Информация на этой странице в стадии наполнения.
Если вы не увидели какой-то информации, или заметили неточность - пожалуйста сообщите нам!
Спасибо!
Команда RU-STAFF
Название аэропортаКемерово
Название аэропорта (англ.)Kemerovo
Превышение873 ft. (266.1 m.)
Координаты55°16.2', 86°6.6'
Высота перехода500m
Эшелон переходаQFE>=760mm:FL030; QFE<=759=>733mm:FL040; QFE<=732mm:FL050
Коды ответчика5260-5267
Зона ОрВДНовосибирск РПИ (UNNT)
Данные METARUNEE 241600Z 33006MPS CAVOK 09/06 Q1015 R23/CLRD60 NOSIG RMK QFE738
Проноз погоды (TAF)UNEE 241400Z 2415/2515 34005G10MPS 8000 BKN040CB TX16/2509Z TN06/2422Z BECMG 2421/2423 01003G08MPS TEMPO 2421/2504 BKN016CB TEMPO 2506/2512 02008G15MPS
NOTAMshow/hide NOTAM
AWOS   TABLE

Информация о ВПП

ВПП Длина ВПП (м.) Покрытие Курс ВПП Частота ILS
053200Цементобетон46 
233200Цементобетон226109.1

Диспетчерские позиции

Позывной Наименование органа УВД Частота
UNEE_APPКемерово-Подход125.5
UNEE_TWRКемерово-Старт118.3



Спутниковое изображение